This is the latest recevied weather packets stored in our database for station/object KC3AWA. If no packets are shown the sender has not sent any weather packets the latest 1 day(s).
| Time | Temp. | Humidity | Pressure | Rain* | Wind** | Luminosity | Snow |
|---|---|---|---|---|---|---|---|
| 1777994246 | 20° C | 59% | 1008.3 hPa | 0 mm | 2.24 m/s, 210° | 810 W/m² | - |
| 1777993944 | 20° C | 59% | 1008.3 hPa | 0 mm | 0.89 m/s, 198° | 366 W/m² | - |
| 1777993640 | 20° C | 61% | 1008 hPa | 0 mm | 0.89 m/s, 212° | 773 W/m² | - |
| 1777993337 | 20° C | 60% | 1008.1 hPa | 0 mm | 3.13 m/s, 240° | 607 W/m² | - |
| 1777993032 | 18.89° C | 65% | 1008.2 hPa | 0 mm | 1.34 m/s, 203° | 744 W/m² | - |
| 1777992731 | 18.33° C | 63% | 1008.1 hPa | 0 mm | 1.79 m/s, 172° | 684 W/m² | - |
| 1777992428 | 18.33° C | 64% | 1008.4 hPa | 0 mm | 4.02 m/s, 203° | 295 W/m² | - |
| 1777992126 | 17.78° C | 65% | 1008.2 hPa | 0 mm | 2.68 m/s, 202° | 292 W/m² | - |
| 1777991823 | 17.78° C | 65% | 1008.3 hPa | 0 mm | 3.58 m/s, 246° | 330 W/m² | - |
| 1777991520 | 17.78° C | 68% | 1008 hPa | 0 mm | 1.79 m/s, 177° | 350 W/m² | - |
| 1777991217 | 17.78° C | 68% | 1008 hPa | 0 mm | 2.24 m/s, 232° | 282 W/m² | - |
| 1777990914 | 17.78° C | 67% | 1008.3 hPa | 0 mm | 1.79 m/s, 202° | 254 W/m² | - |
| 1777990612 | 17.22° C | 66% | 1008.4 hPa | 0 mm | 1.79 m/s, 229° | 222 W/m² | - |
| 1777990309 | 17.78° C | 67% | 1008.6 hPa | 0 mm | 3.13 m/s, 225° | 132 W/m² | - |
| 1777990005 | 17.78° C | 64% | 1008.4 hPa | 0 mm | 0.89 m/s, 191° | 140 W/m² | - |
| 1777989702 | 17.78° C | 63% | 1008.3 hPa | 0 mm | 5.36 m/s, 218° | 151 W/m² | - |
| 1777989398 | 17.78° C | 64% | 1008.2 hPa | 0 mm | 3.13 m/s, 259° | 196 W/m² | - |
| 1777989095 | 17.78° C | 62% | 1008.3 hPa | 0 mm | 3.58 m/s, 216° | 169 W/m² | - |
| 1777988790 | 17.78° C | 63% | 1008.2 hPa | 0 mm | 0.89 m/s, 213° | 182 W/m² | - |
| 1777988488 | 17.78° C | 64% | 1008.3 hPa | 0 mm | 0.89 m/s, 260° | 190 W/m² | - |
| 1777988185 | 17.78° C | 64% | 1008 hPa | 0 mm | 1.79 m/s, 258° | 210 W/m² | - |
| 1777987881 | 17.78° C | 64% | 1008 hPa | 0 mm | 3.58 m/s, 181° | 200 W/m² | - |
| 1777987577 | 17.78° C | 64% | 1008.2 hPa | 0 mm | 2.24 m/s, 192° | 152 W/m² | - |
| 1777987275 | 17.78° C | 63% | 1008.2 hPa | 0 mm | 2.24 m/s, 211° | 166 W/m² | - |
| 1777986971 | 17.78° C | 64% | 1008.2 hPa | 0 mm | 1.79 m/s, 124° | 185 W/m² | - |
* Rain latest hour (hover to see other rain measurements)
** Current wind speed in m/s (hover to see current wind gust speed)